| time (UTC) | temp F | wind direction | speed MPH | gust MPH | rain 1hr in | rain 24hr in | rain mn in | humidity % | barometer mb |
| 20260506042505 | 43 | 12 | 5.0 | 12.0 | 0.00 | 0.00 | 0.00 | 82 | 1014.3 |
| 20260506042005 | 43 | 20 | 5.0 | 12.0 | 0.00 | 0.00 | 0.00 | 82 | 1014.6 |
| 20260506041504 | 43 | 23 | 6.0 | 10.0 | 0.00 | 0.00 | 0.00 | 82 | 1014.6 |
| 20260506041005 | 43 | 25 | 6.0 | 11.0 | 0.00 | 0.00 | 0.00 | 82 | 1014.5 |
| 20260506040005 | 43 | 23 | 5.0 | 10.0 | 0.00 | 0.00 | 0.00 | 82 | 1014.6 |
| 20260506035505 | 43 | 16 | 5.0 | 12.0 | 0.00 | 0.00 | 0.00 | 82 | 1014.5 |
| 20260506034505 | 43 | 21 | 6.0 | 11.0 | 0.00 | 0.00 | 0.00 | 82 | 1014.6 |
| 20260506034004 | 43 | 13 | 5.0 | 11.0 | 0.00 | 0.00 | 0.00 | 82 | 1014.6 |
| 20260506033505 | 43 | 5 | 5.0 | 10.0 | 0.00 | 0.00 | 0.00 | 82 | 1014.7 |
| 20260506033005 | 43 | 4 | 5.0 | 11.0 | 0.00 | 0.00 | 0.00 | 82 | 1014.7 |
| 20260506032005 | 43 | 16 | 6.0 | 12.0 | 0.00 | 0.00 | 0.00 | 82 | 1014.7 |
| 20260506031505 | 43 | 13 | 6.0 | 12.0 | 0.00 | 0.00 | 0.00 | 81 | 1014.7 |
| 20260506031004 | 43 | 10 | 6.0 | 11.0 | 0.00 | 0.00 | 0.00 | 81 | 1014.8 |
| 20260506030004 | 43 | 24 | 6.0 | 12.0 | 0.00 | 0.00 | 0.00 | 81 | 1014.7 |
| 20260506025505 | 43 | 23 | 6.0 | 12.0 | 0.00 | 0.00 | 0.00 | 81 | 1014.7 |
| 20260506024504 | 44 | 20 | 5.0 | 10.0 | 0.00 | 0.00 | 0.00 | 81 | 1014.8 |
| 20260506023504 | 44 | 20 | 6.0 | 11.0 | 0.00 | 0.00 | 0.00 | 80 | 1014.9 |
| 20260506023005 | 44 | 11 | 6.0 | 11.0 | 0.00 | 0.00 | 0.00 | 80 | 1015.0 |
| 20260506022505 | 44 | 11 | 5.0 | 11.0 | 0.00 | 0.00 | 0.00 | 80 | 1015.0 |
| 20260506022005 | 44 | 19 | 4.0 | 10.0 | 0.00 | 0.00 | 0.00 | 80 | 1015.1 |
| 20260506021505 | 44 | 17 | 3.0 | 7.0 | 0.00 | 0.00 | 0.00 | 80 | 1015.0 |
| 20260506021005 | 44 | 15 | 4.0 | 7.0 | 0.00 | 0.00 | 0.00 | 80 | 1015.0 |
| 20260506020504 | 44 | 17 | 4.0 | 8.0 | 0.00 | 0.00 | 0.00 | 80 | 1015.0 |
| 20260506020005 | 44 | 15 | 4.0 | 9.0 | 0.00 | 0.00 | 0.00 | 80 | 1015.0 |
| 20260506015504 | 44 | 24 | 4.0 | 9.0 | 0.00 | 0.00 | 0.00 | 79 | 1015.1 |
| 20260506015004 | 44 | 36 | 4.0 | 8.0 | 0.00 | 0.00 | 0.00 | 79 | 1015.0 |
| 20260506014504 | 44 | 37 | 5.0 | 9.0 | 0.00 | 0.00 | 0.00 | 79 | 1015.1 |
| 20260506014004 | 44 | 40 | 5.0 | 9.0 | 0.00 | 0.00 | 0.00 | 79 | 1015.1 |
| 20260506013504 | 44 | 48 | 5.0 | 9.0 | 0.00 | 0.00 | 0.00 | 79 | 1015.0 |
| 20260506013004 | 44 | 47 | 5.0 | 9.0 | 0.00 | 0.00 | 0.00 | 79 | 1015.1 |
| 20260506012504 | 44 | 42 | 5.0 | 10.0 | 0.00 | 0.00 | 0.00 | 78 | 1015.1 |
| 20260506012004 | 44 | 45 | 4.0 | 11.0 | 0.00 | 0.00 | 0.00 | 78 | 1015.2 |
| 20260506011504 | 44 | 42 | 4.0 | 11.0 | 0.00 | 0.00 | 0.00 | 78 | 1015.2 |
| 20260506011004 | 45 | 33 | 3.0 | 9.0 | 0.00 | 0.00 | 0.00 | 78 | 1015.3 |
| 20260506010504 | 45 | 34 | 3.0 | 9.0 | 0.00 | 0.00 | 0.00 | 78 | 1015.3 |
| 20260506010005 | 45 | 37 | 4.0 | 8.0 | 0.00 | 0.00 | 0.00 | 78 | 1015.2 |
| 20260506005504 | 45 | 38 | 5.0 | 9.0 | 0.00 | 0.00 | 0.00 | 78 | 1015.3 |
| 20260506005005 | 45 | 31 | 4.0 | 10.0 | 0.00 | 0.00 | 0.00 | 78 | 1015.3 |
| 20260506004004 | 45 | 17 | 4.0 | 9.0 | 0.00 | 0.00 | 0.00 | 78 | 1015.3 |
| 20260506003504 | 45 | 24 | 5.0 | 8.0 | 0.00 | 0.00 | 0.00 | 78 | 1015.4 |
| 20260506003005 | 45 | 36 | 6.0 | 10.0 | 0.00 | 0.00 | 0.00 | 78 | 1015.4 |
| 20260506002504 | 45 | 41 | 6.0 | 11.0 | 0.00 | 0.00 | 0.00 | 77 | 1015.4 |
| 20260506002005 | 45 | 41 | 5.0 | 13.0 | 0.00 | 0.00 | 0.00 | 78 | 1015.3 |
| 20260506000504 | 45 | 35 | 4.0 | 9.0 | 0.00 | 0.00 | 0.00 | 78 | 1015.4 |
| 20260506000004 | 46 | 41 | 4.0 | 9.0 | 0.00 | 0.00 | 0.00 | 78 | 1015.4 |
| 20260505235504 | 46 | 43 | 5.0 | 8.0 | 0.00 | 0.00 | 0.00 | 77 | 1015.4 |
| 20260505235005 | 46 | 44 | 6.0 | 11.0 | 0.00 | 0.00 | 0.00 | 77 | 1015.5 |
| 20260505234504 | 46 | 49 | 6.0 | 11.0 | 0.00 | 0.00 | 0.00 | 77 | 1015.5 |
| 20260505233507 | 46 | 37 | 5.0 | 11.0 | 0.00 | 0.00 | 0.00 | 77 | 1015.4 |
| 20260505233007 | 46 | 35 | 5.0 | 11.0 | 0.00 | 0.00 | 0.00 | 77 | 1015.5 |
| 20260505232507 | 46 | 43 | 7.0 | 10.0 | 0.00 | 0.00 | 0.00 | 76 | 1015.4 |
| 20260505232008 | 46 | 47 | 8.0 | 13.0 | 0.00 | 0.00 | 0.00 | 76 | 1015.5 |
| 20260505231007 | 46 | 50 | 8.0 | 15.0 | 0.00 | 0.00 | 0.00 | 76 | 1015.4 |
| 20260505230507 | 46 | 54 | 8.0 | 13.0 | 0.00 | 0.00 | 0.00 | 76 | 1015.5 |
| 20260505230008 | 46 | 48 | 8.0 | 14.0 | 0.00 | 0.00 | 0.00 | 77 | 1015.6 |
| 20260505225508 | 46 | 46 | 9.0 | 14.0 | 0.00 | 0.00 | 0.00 | 77 | 1015.5 |
| 20260505225008 | 47 | 49 | 8.0 | 13.0 | 0.00 | 0.00 | 0.00 | 78 | 1015.4 |
| 20260505224508 | 47 | 41 | 7.0 | 13.0 | 0.00 | 0.00 | 0.00 | 79 | 1015.4 |
| 20260505224007 | 47 | 35 | 7.0 | 13.0 | 0.00 | 0.00 | 0.00 | 79 | 1015.5 |
| 20260505223507 | 47 | 42 | 8.0 | 12.0 | 0.00 | 0.00 | 0.00 | 79 | 1015.5 |
| 20260505223007 | 47 | 49 | 9.0 | 16.0 | 0.00 | 0.00 | 0.00 | 78 | 1015.4 |
| 20260505222507 | 47 | 48 | 9.0 | 16.0 | 0.00 | 0.00 | 0.00 | 78 | 1015.4 |
| 20260505221507 | 47 | 47 | 8.0 | 14.0 | 0.00 | 0.00 | 0.00 | 78 | 1015.3 |
| 20260505221007 | 47 | 43 | 8.0 | 14.0 | 0.00 | 0.00 | 0.00 | 77 | 1015.3 |
| 20260505220507 | 47 | 44 | 8.0 | 13.0 | 0.00 | 0.00 | 0.00 | 77 | 1015.3 |
| 20260505220007 | 47 | 45 | 8.0 | 13.0 | 0.00 | 0.00 | 0.00 | 76 | 1015.4 |
| 20260505215507 | 47 | 45 | 8.0 | 13.0 | 0.00 | 0.00 | 0.00 | 76 | 1015.3 |
| 20260505215007 | 47 | 50 | 9.0 | 13.0 | 0.00 | 0.00 | 0.00 | 75 | 1015.4 |
| 20260505214507 | 47 | 47 | 10.0 | 15.0 | 0.00 | 0.00 | 0.00 | 75 | 1015.5 |
| 20260505214007 | 47 | 44 | 10.0 | 16.0 | 0.00 | 0.00 | 0.00 | 75 | 1015.5 |
| 20260505213507 | 47 | 44 | 11.0 | 17.0 | 0.00 | 0.00 | 0.00 | 74 | 1015.4 |
| 20260505213008 | 48 | 46 | 11.0 | 18.0 | 0.00 | 0.00 | 0.00 | 74 | 1015.4 |
| 20260505212507 | 48 | 49 | 10.0 | 18.0 | 0.00 | 0.00 | 0.00 | 73 | 1015.4 |
| 20260505212007 | 48 | 55 | 10.0 | 16.0 | 0.00 | 0.00 | 0.00 | 72 | 1015.5 |
| 20260505211507 | 48 | 54 | 10.0 | 16.0 | 0.00 | 0.00 | 0.00 | 72 | 1015.5 |
| 20260505211007 | 48 | 52 | 11.0 | 17.0 | 0.00 | 0.00 | 0.00 | 71 | 1015.5 |
| 20260505210508 | 48 | 52 | 11.0 | 18.0 | 0.00 | 0.00 | 0.00 | 72 | 1015.4 |
| 20260505210007 | 48 | 49 | 12.0 | 18.0 | 0.00 | 0.00 | 0.00 | 73 | 1015.4 |
| 20260505205507 | 49 | 51 | 12.0 | 18.0 | 0.00 | 0.00 | 0.00 | 75 | 1015.3 |
| 20260505205007 | 49 | 54 | 11.0 | 17.0 | 0.00 | 0.00 | 0.00 | 76 | 1015.3 |
| 20260505204507 | 49 | 56 | 11.0 | 18.0 | 0.00 | 0.00 | 0.00 | 75 | 1015.2 |
| 20260505203007 | 49 | 51 | 8.0 | 20.0 | 0.00 | 0.00 | 0.00 | 75 | 1015.1 |
| 20260505202507 | 50 | 56 | 7.0 | 14.0 | 0.00 | 0.00 | 0.00 | 77 | 1015.1 |
| 20260505202007 | 50 | 51 | 6.0 | 13.0 | 0.00 | 0.00 | 0.00 | 77 | 1015.0 |
| 20260505201507 | 50 | 48 | 8.0 | 11.0 | 0.00 | 0.00 | 0.00 | 76 | 1015.0 |
| 20260505201007 | 50 | 48 | 9.0 | 14.0 | 0.00 | 0.00 | 0.00 | 76 | 1015.1 |
| 20260505200007 | 50 | 39 | 11.0 | 15.0 | 0.00 | 0.00 | 0.00 | 76 | 1014.9 |
| 20260505195506 | 50 | 41 | 11.0 | 17.0 | 0.00 | 0.00 | 0.00 | 76 | 1014.7 |
| 20260505195007 | 50 | 47 | 10.0 | 17.0 | 0.00 | 0.00 | 0.00 | 76 | 1014.7 |
| 20260505194007 | 51 | 52 | 11.0 | 16.0 | 0.00 | 0.00 | 0.00 | 76 | 1014.3 |
| 20260505193507 | 51 | 49 | 10.0 | 17.0 | 0.00 | 0.00 | 0.00 | 76 | 1014.5 |
| 20260505193007 | 51 | 46 | 11.0 | 17.0 | 0.00 | 0.00 | 0.00 | 76 | 1014.5 |
| 20260505192507 | 51 | 44 | 13.0 | 19.0 | 0.00 | 0.00 | 0.00 | 75 | 1014.5 |
| 20260505192007 | 51 | 47 | 13.0 | 23.0 | 0.00 | 0.00 | 0.00 | 75 | 1014.3 |
| 20260505191507 | 51 | 50 | 12.0 | 23.0 | 0.00 | 0.00 | 0.00 | 74 | 1014.3 |
| 20260505191006 | 51 | 48 | 9.0 | 21.0 | 0.00 | 0.00 | 0.00 | 74 | 1014.3 |
| 20260505190506 | 52 | 55 | 8.0 | 16.0 | 0.00 | 0.00 | 0.00 | 74 | 1014.2 |
| 20260505190007 | 52 | 70 | 8.0 | 15.0 | 0.00 | 0.00 | 0.00 | 75 | 1014.2 |
| 20260505185507 | 53 | 66 | 8.0 | 15.0 | 0.00 | 0.00 | 0.00 | 75 | 1014.0 |
| 20260505185007 | 53 | 61 | 9.0 | 14.0 | 0.00 | 0.00 | 0.00 | 74 | 1014.1 |
| 20260505184007 | 54 | 68 | 7.0 | 16.0 | 0.00 | 0.00 | 0.00 | 72 | 1013.9 |
| 20260505183507 | 54 | 54 | 6.0 | 14.0 | 0.00 | 0.00 | 0.00 | 69 | 1013.9 |
| 20260505183007 | 55 | 33 | 6.0 | 9.0 | 0.00 | 0.00 | 0.00 | 63 | 1013.7 |
| 20260505182507 | 55 | 20 | 6.0 | 12.0 | 0.00 | 0.00 | 0.00 | 63 | 1013.6 |
| 20260505182007 | 55 | 18 | 6.0 | 14.0 | 0.00 | 0.00 | 0.00 | 63 | 1013.7 |
| 20260505181506 | 55 | 15 | 7.0 | 14.0 | 0.00 | 0.00 | 0.00 | 63 | 1013.6 |
| 20260505181006 | 55 | 24 | 8.0 | 13.0 | 0.00 | 0.00 | 0.00 | 63 | 1013.7 |
| 20260505180506 | 55 | 28 | 8.0 | 14.0 | 0.00 | 0.00 | 0.00 | 63 | 1013.7 |
| 20260505180006 | 55 | 27 | 8.0 | 14.0 | 0.00 | 0.00 | 0.00 | 63 | 1013.7 |
| 20260505175507 | 55 | 30 | 8.0 | 15.0 | 0.00 | 0.00 | 0.00 | 63 | 1013.7 |
| 20260505175007 | 56 | 28 | 7.0 | 15.0 | 0.00 | 0.00 | 0.00 | 62 | 1013.7 |
| 20260505174507 | 56 | 22 | 7.0 | 13.0 | 0.00 | 0.00 | 0.00 | 63 | 1013.5 |
| 20260505174007 | 56 | 21 | 8.0 | 14.0 | 0.00 | 0.00 | 0.00 | 62 | 1013.6 |
| 20260505173506 | 56 | 11 | 9.0 | 15.0 | 0.00 | 0.00 | 0.00 | 62 | 1013.7 |
| 20260505173008 | 56 | 7 | 9.0 | 15.0 | 0.00 | 0.00 | 0.00 | 61 | 1013.6 |
| 20260505172507 | 56 | 11 | 9.0 | 14.0 | 0.00 | 0.00 | 0.00 | 62 | 1013.6 |
| 20260505172007 | 56 | 5 | 9.0 | 15.0 | 0.00 | 0.00 | 0.00 | 62 | 1013.7 |
| 20260505171006 | 57 | 21 | 7.0 | 14.0 | 0.00 | 0.00 | 0.00 | 62 | 1013.7 |
| 20260505170006 | 57 | 33 | 7.0 | 15.0 | 0.00 | 0.00 | 0.00 | 62 | 1013.8 |
| 20260505165506 | 57 | 35 | 6.0 | 15.0 | 0.00 | 0.00 | 0.00 | 62 | 1013.6 |
| 20260505165006 | 57 | 25 | 7.0 | 11.0 | 0.00 | 0.00 | 0.00 | 63 | 1013.7 |
| 20260505164507 | 57 | 29 | 7.0 | 12.0 | 0.00 | 0.00 | 0.00 | 63 | 1013.7 |
| 20260505164007 | 57 | 31 | 7.0 | 13.0 | 0.00 | 0.00 | 0.00 | 62 | 1013.6 |
| 20260505163507 | 57 | 38 | 7.0 | 13.0 | 0.00 | 0.00 | 0.00 | 63 | 1013.7 |
| 20260505163008 | 57 | 39 | 7.0 | 12.0 | 0.00 | 0.00 | 0.00 | 63 | 1013.7 |
| 20260505162507 | 57 | 26 | 6.0 | 15.0 | 0.00 | 0.00 | 0.00 | 62 | 1013.6 |
| 20260505162006 | 57 | 12 | 6.0 | 15.0 | 0.00 | 0.00 | 0.00 | 63 | 1013.7 |
| 20260505161506 | 58 | 355 | 7.0 | 13.0 | 0.00 | 0.00 | 0.00 | 62 | 1013.6 |
| 20260505161006 | 58 | 351 | 7.0 | 14.0 | 0.00 | 0.00 | 0.00 | 62 | 1013.6 |
| 20260505160506 | 58 | 343 | 7.0 | 14.0 | 0.00 | 0.00 | 0.00 | 61 | 1013.6 |
| 20260505153006 | 57 | 11 | 8.0 | 13.0 | 0.00 | 0.00 | 0.00 | 63 | 1013.7 |
| 20260505152506 | 57 | 19 | 7.0 | 14.0 | 0.00 | 0.00 | 0.00 | 63 | 1013.7 |
| 20260505151506 | 57 | 8 | 7.0 | 12.0 | 0.00 | 0.00 | 0.00 | 63 | 1013.8 |
| 20260505150507 | 57 | 22 | 7.0 | 12.0 | 0.00 | 0.00 | 0.00 | 63 | 1013.9 |
| 20260505140507 | 56 | 356 | 7.0 | 14.0 | 0.00 | 0.00 | 0.00 | 64 | 1013.8 |
| 20260505125006 | 58 | 358 | 5.0 | 9.0 | 0.00 | 0.00 | 0.00 | 64 | 1013.7 |
| 20260505124006 | 58 | 24 | 4.0 | 11.0 | 0.00 | 0.00 | 0.00 | 63 | 1013.8 |
| 20260505123506 | 58 | 355 | 4.0 | 11.0 | 0.00 | 0.00 | 0.00 | 63 | 1013.7 |
| 20260505122506 | 57 | 10 | 4.0 | 9.0 | 0.00 | 0.00 | 0.00 | 63 | 1013.8 |
| 20260505122006 | 57 | 5 | 6.0 | 9.0 | 0.00 | 0.00 | 0.00 | 63 | 1013.8 |
| 20260505121505 | 58 | 6 | 5.0 | 10.0 | 0.00 | 0.00 | 0.00 | 62 | 1013.9 |
| 20260505121005 | 58 | 1 | 4.0 | 11.0 | 0.00 | 0.00 | 0.00 | 63 | 1013.9 |
| 20260505120506 | 58 | 353 | 4.0 | 11.0 | 0.00 | 0.00 | 0.00 | 63 | 1013.7 |
| 20260505120006 | 58 | 351 | 5.0 | 10.0 | 0.00 | 0.00 | 0.00 | 64 | 1013.9 |
| 20260505115506 | 58 | 12 | 4.0 | 10.0 | 0.00 | 0.00 | 0.00 | 62 | 1013.8 |
| 20260505115006 | 57 | 24 | 4.0 | 10.0 | 0.00 | 0.00 | 0.00 | 63 | 1013.8 |
| 20260505114506 | 58 | 10 | 3.0 | 10.0 | 0.00 | 0.00 | 0.00 | 63 | 1014.1 |
| 20260505113505 | 57 | 16 | 5.0 | 9.0 | 0.00 | 0.00 | 0.00 | 63 | 1014.0 |
| 20260505113006 | 58 | 340 | 6.0 | 12.0 | 0.00 | 0.00 | 0.00 | 63 | 1014.0 |
| 20260505112506 | 58 | 305 | 6.0 | 12.0 | 0.00 | 0.00 | 0.00 | 62 | 1014.1 |
| 20260505112006 | 58 | 293 | 4.0 | 11.0 | 0.00 | 0.00 | 0.00 | 61 | 1014.1 |
| 20260505111506 | 58 | 315 | 4.0 | 10.0 | 0.00 | 0.00 | 0.00 | 63 | 1014.1 |
| 20260505111006 | 57 | 336 | 5.0 | 9.0 | 0.00 | 0.00 | 0.00 | 65 | 1014.1 |
| 20260505110506 | 57 | 345 | 6.0 | 9.0 | 0.00 | 0.00 | 0.00 | 64 | 1014.1 |
| 20260505101505 | 57 | 328 | 3.0 | 8.0 | 0.00 | 0.00 | 0.00 | 68 | 1014.3 |
| 20260505101005 | 56 | 334 | 4.0 | 8.0 | 0.00 | 0.00 | 0.00 | 67 | 1014.4 |
| 20260505100006 | 56 | 339 | 4.0 | 10.0 | 0.00 | 0.00 | 0.00 | 67 | 1014.5 |
| 20260505095505 | 55 | 335 | 4.0 | 9.0 | 0.00 | 0.00 | 0.00 | 66 | 1014.5 |
| 20260505094506 | 55 | 335 | 5.0 | 11.0 | 0.00 | 0.00 | 0.00 | 66 | 1014.5 |
| 20260505094005 | 55 | 339 | 5.0 | 11.0 | 0.00 | 0.00 | 0.00 | 67 | 1014.5 |
| 20260505093505 | 55 | 330 | 4.0 | 10.0 | 0.00 | 0.00 | 0.00 | 68 | 1014.5 |
| 20260505093005 | 55 | 326 | 3.0 | 9.0 | 0.00 | 0.00 | 0.00 | 69 | 1014.4 |
| 20260505092006 | 54 | 335 | 4.0 | 8.0 | 0.00 | 0.00 | 0.00 | 69 | 1014.5 |
| 20260505091505 | 54 | 326 | 4.0 | 8.0 | 0.00 | 0.00 | 0.00 | 69 | 1014.6 |
| 20260505091005 | 54 | 324 | 4.0 | 10.0 | 0.00 | 0.00 | 0.00 | 68 | 1014.7 |
| 20260505090505 | 54 | 320 | 4.0 | 10.0 | 0.00 | 0.00 | 0.00 | 70 | 1014.6 |
| 20260505090005 | 54 | 323 | 4.0 | 8.0 | 0.00 | 0.00 | 0.00 | 71 | 1014.6 |
| 20260505085005 | 54 | 314 | 4.0 | 9.0 | 0.00 | 0.00 | 0.00 | 71 | 1014.6 |
| 20260505084505 | 53 | 317 | 3.0 | 9.0 | 0.00 | 0.00 | 0.00 | 72 | 1014.7 |
| 20260505084005 | 53 | 343 | 3.0 | 5.0 | 0.00 | 0.00 | 0.00 | 73 | 1014.6 |
| 20260505083506 | 52 | 2 | 3.0 | 7.0 | 0.00 | 0.00 | 0.00 | 73 | 1014.6 |
| 20260505082506 | 52 | 346 | 3.0 | 6.0 | 0.00 | 0.00 | 0.00 | 74 | 1014.7 |
| 20260505081505 | 51 | 338 | 3.0 | 6.0 | 0.00 | 0.00 | 0.00 | 75 | 1014.8 |
| 20260505081006 | 51 | 337 | 4.0 | 7.0 | 0.00 | 0.00 | 0.00 | 76 | 1014.8 |
| 20260505080506 | 51 | 348 | 5.0 | 8.0 | 0.00 | 0.00 | 0.00 | 76 | 1014.9 |
| 20260505075505 | 50 | 359 | 5.0 | 9.0 | 0.00 | 0.00 | 0.00 | 76 | 1014.8 |
| 20260505075005 | 50 | 7 | 6.0 | 9.0 | 0.00 | 0.00 | 0.00 | 77 | 1014.8 |
| 20260505074506 | 50 | 18 | 5.0 | 10.0 | 0.00 | 0.01 | 0.00 | 77 | 1014.6 |
| 20260505073505 | 49 | 359 | 4.0 | 9.0 | 0.00 | 0.01 | 0.00 | 79 | 1014.7 |
| 20260505073005 | 49 | 359 | 4.0 | 11.0 | 0.00 | 0.01 | 0.00 | 79 | 1014.7 |
| 20260505072505 | 49 | 357 | 3.0 | 11.0 | 0.00 | 0.01 | 0.00 | 80 | 1014.8 |
| 20260505072006 | 49 | 346 | 2.0 | 8.0 | 0.00 | 0.01 | 0.00 | 82 | 1014.7 |
| 20260505071505 | 48 | 338 | 2.0 | 5.0 | 0.00 | 0.01 | 0.00 | 83 | 1014.7 |
| 20260505071005 | 48 | 346 | 3.0 | 4.0 | 0.00 | 0.01 | 0.00 | 83 | 1014.9 |
| 20260505070505 | 48 | 340 | 4.0 | 8.0 | 0.00 | 0.01 | 0.00 | 83 | 1014.9 |
| 20260505070005 | 47 | 326 | 4.0 | 9.0 | 0.00 | 0.01 | 0.00 | 84 | 1014.9 |
| 20260505065506 | 47 | 323 | 5.0 | 9.0 | 0.00 | 0.01 | 0.00 | 84 | 1015.0 |
| 20260505065005 | 47 | 327 | 5.0 | 10.0 | 0.00 | 0.01 | 0.00 | 85 | 1014.9 |
| 20260505064505 | 47 | 326 | 4.0 | 10.0 | 0.00 | 0.01 | 0.00 | 85 | 1014.9 |
| 20260505064005 | 47 | 321 | 4.0 | 9.0 | 0.00 | 0.01 | 0.00 | 86 | 1014.9 |
| 20260505063505 | 47 | 318 | 5.0 | 9.0 | 0.00 | 0.01 | 0.00 | 86 | 1015.0 |
| 20260505063005 | 47 | 322 | 5.0 | 9.0 | 0.00 | 0.01 | 0.00 | 87 | 1014.9 |
| 20260505062505 | 47 | 321 | 5.0 | 9.0 | 0.00 | 0.01 | 0.00 | 87 | 1015.0 |
| 20260505062005 | 47 | 314 | 4.0 | 8.0 | 0.00 | 0.01 | 0.00 | 87 | 1015.1 |
| 20260505061005 | 47 | 305 | 4.0 | 9.0 | 0.00 | 0.01 | 0.00 | 88 | 1015.1 |
| 20260505060505 | 47 | 309 | 5.0 | 9.0 | 0.00 | 0.01 | 0.00 | 88 | 1015.1 |
| 20260505060006 | 47 | 312 | 4.0 | 9.0 | 0.00 | 0.01 | 0.00 | 88 | 1015.0 |
| 20260505055005 | 47 | 312 | 3.0 | 6.0 | 0.00 | 0.01 | 0.00 | 89 | 1015.0 |
| 20260505054505 | 47 | 314 | 3.0 | 5.0 | 0.00 | 0.01 | 0.00 | 89 | 1015.1 |
| 20260505054005 | 47 | 319 | 3.0 | 5.0 | 0.00 | 0.01 | 0.00 | 89 | 1015.0 |
| 20260505053505 | 47 | 317 | 4.0 | 7.0 | 0.00 | 0.01 | 0.00 | 89 | 1015.1 |
| 20260505053005 | 47 | 308 | 4.0 | 8.0 | 0.00 | 0.01 | 0.00 | 89 | 1014.9 |
| 20260505052505 | 48 | 303 | 4.0 | 8.0 | 0.00 | 0.01 | 0.00 | 89 | 1014.9 |
| 20260505052005 | 48 | 300 | 3.0 | 8.0 | 0.00 | 0.01 | 0.00 | 89 | 1014.9 |
| 20260505051505 | 48 | 309 | 3.0 | 7.0 | 0.00 | 0.01 | 0.00 | 88 | 1014.8 |
| 20260505051005 | 48 | 313 | 4.0 | 5.0 | 0.00 | 0.01 | 0.00 | 89 | 1014.8 |
| 20260505050505 | 48 | 299 | 4.0 | 7.0 | 0.00 | 0.01 | 0.00 | 88 | 1014.8 |